When you browse on this site, cookies collect data to enhance your experience and personalize the content and advertising you see.
Visit our Privacy Policy to learn more. By continuing to use the site, you agree to this use of cookies and data.
  • In Hungary
  • List of Countries
  • For 7 days
  • Water Temperature
  • Weather Map
  • News
  • Weather Widgets
  • user-avatar
    Login

    Hourly Weather Hovu-Aksy

    Today, 13 October, Sunday

    Time Temperature Precipitation Wind Pressure Humidity
    00:00 +4°C° 0 mm 1 mps 680 mmHg 49%
    01:00 +3°C° 0 mm 1 mps 680 mmHg 49%
    02:00 +3°C° 0 mm 1 mps 680 mmHg 48%
    03:00 +3°C° 0 mm 1 mps 680 mmHg 48%
    04:00 +3°C° 0 mm 1 mps 680 mmHg 48%
    05:00 +3°C° 0 mm 1 mps 680 mmHg 49%
    06:00 +3°C° 0 mm 1 mps 681 mmHg 49%
    07:00 +4°C° 0 mm 1 mps 681 mmHg 45%
    08:00 +6°C° 0 mm 1 mps 682 mmHg 41%
    09:00 +8°C° 0 mm 1 mps 682 mmHg 37%
    10:00 +9°C° 0 mm 1 mps 682 mmHg 36%
    11:00 +10°C° 0 mm 1 mps 682 mmHg 35%
    12:00 +11°C° 0 mm 1 mps 683 mmHg 33%
    13:00 +11°C° 0 mm 1 mps 682 mmHg 34%
    14:00 +11°C° 0 mm 1 mps 682 mmHg 35%
    15:00 +11°C° 0 mm 1 mps 682 mmHg 35%
    16:00 +9°C° 0 mm 1 mps 682 mmHg 39%
    17:00 +7°C° 0 mm 1 mps 682 mmHg 43%
    18:00 +6°C° 0 mm 1 mps 681 mmHg 47%
    19:00 +5°C° 0 mm 1 mps 681 mmHg 48%
    20:00 +5°C° 0 mm 1 mps 682 mmHg 48%
    21:00 +5°C° 0 mm 1 mps 682 mmHg 49%
    22:00 +5°C° 0 mm 1 mps 682 mmHg 50%
    23:00 +5°C° 0 mm 1 mps 682 mmHg 51%

    Tomorrow, 14 October, Monday

    Time Temperature Precipitation Wind Pressure Humidity
    00:00 +4°C° 0 mm 1 mps 682 mmHg 52%
    01:00 +4°C° 0 mm 1 mps 681 mmHg 53%
    02:00 +4°C° 0 mm 1 mps 681 mmHg 54%
    03:00 +4°C° 0 mm 1 mps 681 mmHg 55%
    04:00 +4°C° 0 mm 1 mps 681 mmHg 57%
    05:00 +4°C° 0 mm 1 mps 681 mmHg 58%
    06:00 +4°C° 0 mm 1 mps 681 mmHg 60%
    07:00 +5°C° 0 mm 1 mps 681 mmHg 55%
    08:00 +6°C° 0 mm 2 mps 682 mmHg 50%
    09:00 +8°C° 0 mm 2 mps 682 mmHg 45%
    10:00 +9°C° 0 mm 2 mps 682 mmHg 43%
    11:00 +10°C° 0 mm 2 mps 681 mmHg 41%
    12:00 +12°C° 0 mm 2 mps 681 mmHg 39%
    13:00 +10°C° 0 mm 2 mps 680 mmHg 40%
    14:00 +10°C° 0 mm 2 mps 680 mmHg 40%
    15:00 +10°C° 0 mm 2 mps 680 mmHg 41%
    16:00 +8°C° 0 mm 2 mps 679 mmHg 45%
    17:00 +7°C° 0 mm 2 mps 679 mmHg 48%
    18:00 +5°C° 0 mm 2 mps 679 mmHg 52%
    19:00 +5°C° 0 mm 2 mps 679 mmHg 52%
    20:00 +5°C° 0 mm 2 mps 679 mmHg 52%
    21:00 +5°C° 0 mm 2 mps 679 mmHg 52%
    22:00 +4°C° 0 mm 2 mps 678 mmHg 52%
    23:00 +4°C° 0 mm 2 mps 678 mmHg 53%

    Day after tomorrow, 15 October, Tuesday

    Time Temperature Precipitation Wind Pressure Humidity
    00:00 +4°C° 0 mm 2 mps 678 mmHg 53%
    01:00 +4°C° 0 mm 2 mps 678 mmHg 53%
    02:00 +4°C° 0 mm 2 mps 677 mmHg 53%
    03:00 +4°C° 0 mm 2 mps 677 mmHg 53%
    04:00 +4°C° 0 mm 2 mps 677 mmHg 54%
    05:00 +4°C° 0 mm 2 mps 677 mmHg 54%
    06:00 +3°C° 0 mm 2 mps 677 mmHg 54%
    07:00 +5°C° 0 mm 2 mps 677 mmHg 49%
    08:00 +7°C° 0 mm 2 mps 677 mmHg 44%
    09:00 +9°C° 0 mm 2 mps 678 mmHg 40%
    10:00 +10°C° 0 mm 2 mps 677 mmHg 38%
    11:00 +10°C° 0 mm 2 mps 677 mmHg 37%
    12:00 +11°C° 0 mm 3 mps 676 mmHg 35%
    13:00 +12°C° 0 mm 2 mps 676 mmHg 35%
    14:00 +12°C° 0 mm 2 mps 675 mmHg 36%
    15:00 +12°C° 0 mm 2 mps 675 mmHg 36%
    16:00 +9°C° 0 mm 2 mps 675 mmHg 40%
    17:00 +8°C° 0 mm 2 mps 674 mmHg 44%
    18:00 +6°C° 0 mm 2 mps 674 mmHg 48%
    19:00 +6°C° 0 mm 2 mps 674 mmHg 48%
    20:00 +6°C° 0 mm 2 mps 673 mmHg 48%
    21:00 +5°C° 0 mm 2 mps 673 mmHg 48%
    22:00 +5°C° 0 mm 2 mps 673 mmHg 49%
    23:00 +5°C° 0 mm 2 mps 673 mmHg 49%

    16 October, Wednesday

    Time Temperature Precipitation Wind Pressure Humidity
    00:00 +5°C° 0 mm 2 mps 672 mmHg 50%
    01:00 +5°C° 0 mm 2 mps 672 mmHg 50%
    02:00 +4°C° 0 mm 2 mps 672 mmHg 50%
    03:00 +4°C° 0 mm 2 mps 672 mmHg 50%
    04:00 +4°C° 0 mm 2 mps 672 mmHg 51%
    05:00 +5°C° 0 mm 1 mps 672 mmHg 51%
    06:00 +5°C° 0 mm 1 mps 673 mmHg 52%
    07:00 +6°C° 0 mm 1 mps 673 mmHg 49%
    08:00 +8°C° 0 mm 1 mps 673 mmHg 46%
    09:00 +9°C° 0 mm 1 mps 674 mmHg 43%
    10:00 +10°C° 0 mm 1 mps 673 mmHg 42%
    11:00 +11°C° 0 mm 1 mps 673 mmHg 41%
    12:00 +12°C° 0 mm 1 mps 673 mmHg 39%
    13:00 +12°C° 0 mm 1 mps 673 mmHg 40%
    14:00 +12°C° 0 mm 1 mps 672 mmHg 40%
    15:00 +12°C° 0 mm 1 mps 672 mmHg 40%
    16:00 +10°C° 0 mm 1 mps 671 mmHg 44%
    17:00 +9°C° 0 mm 1 mps 671 mmHg 49%
    18:00 +7°C° 0 mm 1 mps 670 mmHg 54%
    19:00 +7°C° 0 mm 1 mps 670 mmHg 54%
    20:00 +5°C° 0 mm 2 mps 670 mmHg 53%
    21:00 +5°C° 0 mm 2 mps 670 mmHg 53%
    22:00 +5°C° 0 mm 2 mps 669 mmHg 54%
    23:00 +4°C° 0 mm 2 mps 669 mmHg 55%

    17 October, Thursday

    Time Temperature Precipitation Wind Pressure Humidity
    00:00 +4°C° 0 mm 2 mps 669 mmHg 56%
    01:00 +4°C° 0 mm 2 mps 668 mmHg 55%
    02:00 +4°C° 0 mm 2 mps 668 mmHg 55%
    03:00 +5°C° 0 mm 2 mps 668 mmHg 55%
    04:00 +4°C° 0 mm 2 mps 668 mmHg 54%
    05:00 +4°C° 0 mm 2 mps 668 mmHg 54%
    06:00 +4°C° 0 mm 2 mps 668 mmHg 53%
    07:00 +5°C° 0 mm 2 mps 668 mmHg 50%
    08:00 +6°C° 0 mm 2 mps 668 mmHg 48%
    09:00 +7°C° 0 mm 2 mps 668 mmHg 45%
    10:00 +8°C° 0 mm 2 mps 667 mmHg 43%
    11:00 +9°C° 0 mm 2 mps 667 mmHg 41%
    12:00 +10°C° 0 mm 3 mps 667 mmHg 39%
    13:00 +10°C° 0 mm 3 mps 666 mmHg 39%
    14:00 +10°C° 0 mm 3 mps 666 mmHg 39%
    15:00 +11°C° 0 mm 3 mps 665 mmHg 39%
    16:00 +9°C° 0 mm 3 mps 665 mmHg 43%
    17:00 +8°C° 0 mm 3 mps 664 mmHg 46%
    18:00 +7°C° 0 mm 3 mps 664 mmHg 50%
    19:00 +7°C° 0 mm 3 mps 664 mmHg 51%
    20:00 +5°C° 0 mm 3 mps 664 mmHg 52%
    21:00 +5°C° 0 mm 4 mps 665 mmHg 52%
    22:00 +4°C° 0.1 mm 3 mps 665 mmHg 61%
    23:00 +3°C° 0.1 mm 3 mps 665 mmHg 70%

    18 October, Friday

    Time Temperature Precipitation Wind Pressure Humidity
    00:00 +4°C° 0.1 mm 2 mps 666 mmHg 79%
    01:00 +2°C° 0.7 mm 2 mps 666 mmHg 83%
    02:00 +1°C° 0.7 mm 2 mps 667 mmHg 87%
    03:00 -1°C° 0.7 mm 2 mps 668 mmHg 91%
    04:00 -1°C° 0.4 mm 2 mps 669 mmHg 90%
    05:00 -1°C° 0.4 mm 2 mps 669 mmHg 88%
    06:00 -1°C° 0.4 mm 2 mps 670 mmHg 87%
    07:00 -1°C° 0 mm 2 mps 671 mmHg 78%
    08:00 +1°C° 0 mm 2 mps 672 mmHg 68%
    09:00 +1°C° 0 mm 3 mps 673 mmHg 59%
    10:00 +2°C° 0 mm 3 mps 673 mmHg 54%
    11:00 +2°C° 0 mm 3 mps 673 mmHg 50%
    12:00 +2°C° 0 mm 3 mps 673 mmHg 45%
    13:00 +2°C° 0 mm 3 mps 673 mmHg 44%
    14:00 +2°C° 0 mm 3 mps 673 mmHg 44%
    15:00 +2°C° 0 mm 3 mps 673 mmHg 43%
    16:00 +2°C° 0 mm 2 mps 673 mmHg 48%
    17:00 +2°C° 0 mm 1 mps 674 mmHg 53%
    18:00 -1°C° 0 mm 0 mps 674 mmHg 58%
    19:00 -1°C° 0 mm 0 mps 674 mmHg 59%
    20:00 0°C° 0 mm 1 mps 674 mmHg 59%
    21:00 0°C° 0 mm 1 mps 674 mmHg 60%
    22:00 0°C° 0 mm 1 mps 674 mmHg 59%
    23:00 0°C° 0 mm 1 mps 674 mmHg 59%
    Show more